Simultaneous Nadir Overpasses (SNOs) Predictions

Prediction of SNOs between AQUA and METOP-B Satellite Orbit:

Table of predicted SNOs for the next 14.0 days since TLE Epoch: 1/13/2017
Index Date (AQUA) Time (AQUA) Lat,Lon (AQUA) SZA (AQUA ) Date (METOP-B) Time (METOP-B) Lat,Lon (METOP-B) SZA (METOP-B ) Distance(km) Time Diff (sec)
1 01/15/2017 02:31:42 73.40, 137.09 94.54 01/15/2017 02:30:32 73.35, 135.89 94.54 38.44 70
2 01/15/2017 03:21:13 -73.69, -55.88 85.17 01/15/2017 03:21:07 -73.70, -55.98 85.15 3.37 6
3 01/15/2017 04:10:42 73.76, 111.60 94.91 01/15/2017 04:11:45 73.78, 111.54 94.92 2.86 63
4 01/17/2017 22:06:02 73.54,-156.77 94.15 01/17/2017 22:04:50 73.48,-157.40 94.13 20.73 72
5 01/17/2017 22:55:31 -73.72, 10.48 85.67 01/17/2017 22:55:27 -73.73, 10.51 85.66 1.58 4
6 01/17/2017 23:45:00 73.79, 177.96 94.41 01/17/2017 23:46:05 73.81, 178.02 94.41 2.60 65
7 01/20/2017 17:40:21 73.63, -90.54 93.66 01/20/2017 17:39:08 73.61, -90.69 93.66 5.32 73
8 01/20/2017 18:29:48 -73.71, 76.94 86.27 01/20/2017 18:29:48 -73.71, 76.88 86.27 2.01 0
9 01/20/2017 19:19:17 73.78,-115.59 93.81 01/20/2017 19:20:26 73.78,-115.61 93.80 0.82 69
10 01/23/2017 13:14:38 73.63, -24.10 93.02 01/23/2017 13:13:28 73.63, -24.21 93.04 3.55 70
11 01/23/2017 14:04:06 -73.76, 143.27 86.86 01/23/2017 14:04:08 -73.73, 143.35 86.88 3.38 2
12 01/23/2017 14:53:33 73.78, -49.15 93.16 01/23/2017 14:54:45 73.81, -49.14 93.18 3.44 72
13 01/26/2017 08:48:55 73.69, 42.22
